SVA1030 OEJN-OERK

Flight info

Callsign SVA1030
Flight time 1h 14m
Altitude 37000
Route EGREP T532 ORDEM
Aircraft B772/H-SDE2E3FGHIJ5LORVWXY/LB1D1

Departure

Time 2026-04-28 22:30
Airport King Abdulaziz International Airport (OEJN)

Arrival

Time 2026-04-28 23:44
Airport King Khalid International Airport (OERK)
Time Latitude Longitude Altitude Speed Heading
2026-04-28 22:10 21.66480 39.17104 35 ft 0 kts 69°
2026-04-28 22:22 21.66479 39.17102 35 ft 2 kts 70°
2026-04-28 22:22 21.66471 39.17076 35 ft 4 kts 77°
2026-04-28 22:23 21.66467 39.17047 33 ft 4 kts 87°
2026-04-28 22:23 21.66468 39.17019 33 ft 4 kts 112°
2026-04-28 22:23 21.66480 39.17002 32 ft 1 kts 159°
2026-04-28 22:23 21.66481 39.17002 32 ft 0 kts 160°
2026-04-28 22:26 21.66457 39.17011 34 ft 7 kts 160°
2026-04-28 22:26 21.66412 39.17018 35 ft 7 kts 181°
2026-04-28 22:27 21.66364 39.17012 35 ft 7 kts 192°
2026-04-28 22:27 21.66319 39.16992 35 ft 7 kts 213°
2026-04-28 22:27 21.66283 39.16927 35 ft 13 kts 249°
2026-04-28 22:27 21.66252 39.16837 35 ft 13 kts 249°
2026-04-28 22:28 21.66221 39.16746 35 ft 13 kts 250°
2026-04-28 22:28 21.66190 39.16656 35 ft 13 kts 250°
2026-04-28 22:28 21.66156 39.16556 35 ft 15 kts 250°
2026-04-28 22:28 21.66155 39.16487 33 ft 8 kts 300°
2026-04-28 22:29 21.66190 39.16463 34 ft 0 kts 339°
2026-04-28 22:29 21.66279 39.16428 35 ft 38 kts 340°
2026-04-28 22:29 21.66800 39.16224 44 ft 118 kts 340°
2026-04-28 22:30 21.67775 39.15843 268 ft 166 kts 341°
2026-04-28 22:30 21.68906 39.15391 1015 ft 178 kts 340°
2026-04-28 22:30 21.70031 39.14944 2272 ft 169 kts 339°
2026-04-28 22:30 21.71188 39.14485 2808 ft 194 kts 338°
2026-04-28 22:31 21.72551 39.13943 3110 ft 220 kts 338°
2026-04-28 22:31 21.74032 39.13357 3689 ft 233 kts 338°
2026-04-28 22:31 21.75585 39.12742 4352 ft 242 kts 338°
2026-04-28 22:31 21.77192 39.12109 5050 ft 249 kts 337°
2026-04-28 22:32 21.78836 39.11461 5703 ft 255 kts 336°
2026-04-28 22:32 21.80569 39.10775 6059 ft 278 kts 336°
2026-04-28 22:32 21.82473 39.10021 6028 ft 298 kts 337°
2026-04-28 22:32 21.84412 39.09261 6018 ft 295 kts 336°
2026-04-28 22:33 21.86327 39.08507 6015 ft 292 kts 336°
2026-04-28 22:33 21.88236 39.07754 6031 ft 293 kts 336°
2026-04-28 22:33 21.90148 39.06988 6031 ft 292 kts 335°
2026-04-28 22:33 21.92066 39.06327 6213 ft 294 kts 352°
2026-04-28 22:34 21.94116 39.06726 6805 ft 309 kts 26°
2026-04-28 22:34 21.95765 39.08202 7578 ft 311 kts 50°
2026-04-28 22:34 21.97077 39.10082 8089 ft 322 kts 53°
2026-04-28 22:34 21.98450 39.12094 8259 ft 345 kts 53°
2026-04-28 22:35 21.99903 39.14244 8673 ft 361 kts 54°
2026-04-28 22:35 22.01379 39.16438 9298 ft 369 kts 54°
2026-04-28 22:35 22.02897 39.18697 10048 ft 374 kts 54°
2026-04-28 22:35 22.04433 39.20980 10817 ft 379 kts 54°
2026-04-28 22:36 22.05989 39.23289 11629 ft 382 kts 53°
2026-04-28 22:36 22.07570 39.25632 12068 ft 387 kts 53°
2026-04-28 22:36 22.09164 39.27993 12777 ft 392 kts 53°
2026-04-28 22:36 22.10783 39.30390 13706 ft 398 kts 53°
2026-04-28 22:37 22.12423 39.32816 14553 ft 403 kts 53°
2026-04-28 22:37 22.14087 39.35280 15357 ft 408 kts 53°
2026-04-28 22:37 22.15762 39.37761 16260 ft 411 kts 53°
2026-04-28 22:37 22.17459 39.40275 17068 ft 417 kts 53°
2026-04-28 22:38 22.19185 39.42834 17812 ft 424 kts 53°
2026-04-28 22:38 22.20913 39.45396 18476 ft 431 kts 53°
2026-04-28 22:38 22.22687 39.48030 19099 ft 437 kts 53°
2026-04-28 22:38 22.24486 39.50699 19707 ft 443 kts 53°
2026-04-28 22:39 22.26315 39.53416 20299 ft 450 kts 53°
2026-04-28 22:39 22.28168 39.56171 20900 ft 456 kts 53°
2026-04-28 22:39 22.30044 39.58960 21465 ft 462 kts 53°
2026-04-28 22:39 22.31940 39.61781 22048 ft 467 kts 53°
2026-04-28 22:40 22.33867 39.64651 22558 ft 474 kts 53°
2026-04-28 22:40 22.35819 39.67558 23098 ft 480 kts 53°
2026-04-28 22:40 22.37786 39.70491 23634 ft 484 kts 53°
2026-04-28 22:40 22.39770 39.73449 24076 ft 489 kts 53°
2026-04-28 22:41 22.41772 39.76435 24562 ft 492 kts 52°
2026-04-28 22:41 22.43785 39.79439 25052 ft 495 kts 52°
2026-04-28 22:41 22.45868 39.82412 25550 ft 496 kts 47°
2026-04-28 22:41 22.48177 39.85182 26110 ft 494 kts 41°
2026-04-28 22:42 22.50714 39.87681 26569 ft 494 kts 37°
2026-04-28 22:42 22.53326 39.90131 26911 ft 501 kts 37°
2026-04-28 22:42 22.55945 39.92575 27277 ft 506 kts 36°
2026-04-28 22:42 22.58616 39.95078 27764 ft 509 kts 37°
2026-04-28 22:43 22.61286 39.97602 28271 ft 510 kts 36°
2026-04-28 22:43 22.63964 40.00150 28765 ft 512 kts 36°
2026-04-28 22:43 22.66643 40.02710 29171 ft 516 kts 36°
2026-04-28 22:43 22.69342 40.05293 29579 ft 519 kts 36°
2026-04-28 22:44 22.72057 40.07895 29960 ft 523 kts 36°
2026-04-28 22:44 22.74797 40.10521 30247 ft 528 kts 36°
2026-04-28 22:44 22.77555 40.13167 30561 ft 531 kts 36°
2026-04-28 22:44 22.80323 40.15822 30884 ft 533 kts 36°
2026-04-28 22:45 22.83102 40.18490 31207 ft 535 kts 37°
2026-04-28 22:45 22.85892 40.21170 31548 ft 536 kts 37°
2026-04-28 22:45 22.88692 40.23860 31844 ft 539 kts 37°
2026-04-28 22:45 22.91511 40.26569 32022 ft 545 kts 37°
2026-04-28 22:46 22.94366 40.29313 32200 ft 549 kts 37°
2026-04-28 22:46 22.97232 40.32072 32462 ft 551 kts 37°
2026-04-28 22:46 23.00104 40.34838 32767 ft 552 kts 37°
2026-04-28 22:46 23.02907 40.37544 33547 ft 541 kts 37°
2026-04-28 22:47 23.05691 40.40234 34419 ft 530 kts 37°
2026-04-28 22:47 23.08423 40.42873 35169 ft 522 kts 37°
2026-04-28 22:47 23.11138 40.45491 35639 ft 523 kts 37°
2026-04-28 22:47 23.13863 40.48118 35999 ft 524 kts 38°
2026-04-28 22:48 23.16585 40.50746 36456 ft 523 kts 38°
2026-04-28 22:48 23.19306 40.53375 36905 ft 523 kts 38°
2026-04-28 22:48 23.22033 40.56013 37036 ft 527 kts 38°
2026-04-28 22:49 23.27015 40.61883 37009 ft 529 kts 53°
2026-04-28 22:49 23.30528 40.68909 37015 ft 532 kts 68°
2026-04-28 22:50 23.33093 40.76464 37017 ft 533 kts 70°
2026-04-28 22:50 23.35633 40.84061 37016 ft 535 kts 69°
2026-04-28 22:51 23.38232 40.91651 37012 ft 534 kts 69°
2026-04-28 22:51 23.40851 40.99210 37008 ft 533 kts 69°
2026-04-28 22:52 23.43452 41.06716 37013 ft 532 kts 69°
2026-04-28 22:52 23.46059 41.14269 37001 ft 532 kts 69°
2026-04-28 22:53 23.48655 41.21812 37012 ft 532 kts 69°
2026-04-28 22:53 23.51251 41.29368 37005 ft 532 kts 69°
2026-04-28 22:54 23.53843 41.36927 37012 ft 533 kts 69°
2026-04-28 22:54 23.56422 41.44459 36997 ft 534 kts 69°
2026-04-28 22:55 23.59015 41.52047 37010 ft 534 kts 69°
2026-04-28 22:55 23.61606 41.59643 36990 ft 534 kts 69°
2026-04-28 22:56 23.64184 41.67215 36997 ft 532 kts 69°
2026-04-28 22:56 23.66754 41.74775 36994 ft 532 kts 69°
2026-04-28 22:57 23.69220 41.82348 37009 ft 533 kts 71°
2026-04-28 22:57 23.71604 41.90014 37007 ft 534 kts 71°
2026-04-28 22:58 23.74016 41.97689 36989 ft 534 kts 71°
2026-04-28 22:58 23.76522 42.05310 37003 ft 533 kts 69°
2026-04-28 22:59 23.79141 42.12871 37002 ft 532 kts 69°
2026-04-28 22:59 23.81751 42.20432 36990 ft 531 kts 69°
2026-04-28 23:00 23.84325 42.27980 36999 ft 530 kts 69°
2026-04-28 23:00 23.86881 42.35517 37005 ft 529 kts 69°
2026-04-28 23:01 23.89435 42.43060 37015 ft 529 kts 69°
2026-04-28 23:01 23.91991 42.50616 37009 ft 530 kts 69°
2026-04-28 23:02 23.94548 42.58189 37003 ft 531 kts 69°
2026-04-28 23:02 23.97099 42.65758 37004 ft 531 kts 70°
2026-04-28 23:03 23.99647 42.73333 36995 ft 530 kts 70°
2026-04-28 23:03 24.01757 42.79619 37009 ft 530 kts 70°
2026-04-28 23:04 24.04298 42.87196 37001 ft 531 kts 70°
2026-04-28 23:04 24.08412 42.99608 36996 ft 532 kts 70°
2026-04-28 23:05 24.10266 43.05250 36995 ft 532 kts 70°
2026-04-28 23:05 24.12766 43.12866 37005 ft 532 kts 70°
2026-04-28 23:06 24.15239 43.20401 36712 ft 525 kts 70°
2026-04-28 23:06 24.16469 43.24155 36309 ft 520 kts 70°
2026-04-28 23:06 24.17683 43.27860 35924 ft 514 kts 70°
2026-04-28 23:07 24.18883 43.31530 35532 ft 509 kts 70°
2026-04-28 23:07 24.20072 43.35167 35129 ft 505 kts 69°
2026-04-28 23:07 24.21254 43.38787 34719 ft 502 kts 69°
2026-04-28 23:07 24.22425 43.42374 34319 ft 498 kts 69°
2026-04-28 23:08 24.23573 43.45896 33926 ft 495 kts 69°
2026-04-28 23:08 24.24728 43.49443 33470 ft 492 kts 69°
2026-04-28 23:08 24.25873 43.52961 33052 ft 489 kts 69°
2026-04-28 23:08 24.27010 43.56457 32653 ft 485 kts 69°
2026-04-28 23:09 24.28138 43.59931 32252 ft 482 kts 69°
2026-04-28 23:09 24.29256 43.63374 31856 ft 478 kts 69°
2026-04-28 23:09 24.30367 43.66801 31474 ft 475 kts 69°
2026-04-28 23:09 24.31470 43.70205 31096 ft 472 kts 69°
2026-04-28 23:10 24.32566 43.73593 30701 ft 470 kts 69°
2026-04-28 23:10 24.33655 43.76959 30313 ft 468 kts 69°
2026-04-28 23:10 24.34741 43.80319 29908 ft 466 kts 69°
2026-04-28 23:10 24.35821 43.83664 29437 ft 464 kts 69°
2026-04-28 23:11 24.36895 43.86991 29009 ft 462 kts 70°
2026-04-28 23:11 24.37962 43.90301 28595 ft 459 kts 70°
2026-04-28 23:11 24.39022 43.93593 28187 ft 456 kts 70°
2026-04-28 23:11 24.40076 43.96868 27796 ft 454 kts 70°
2026-04-28 23:12 24.41121 44.00120 27400 ft 451 kts 70°
2026-04-28 23:12 24.42164 44.03366 27004 ft 449 kts 71°
2026-04-28 23:12 24.43199 44.06589 26578 ft 446 kts 71°
2026-04-28 23:12 24.44227 44.09796 26199 ft 444 kts 71°
2026-04-28 23:13 24.45133 44.13023 25825 ft 441 kts 78°
2026-04-28 23:13 24.45747 44.16307 25441 ft 438 kts 81°
2026-04-28 23:13 24.46295 44.19589 25063 ft 436 kts 82°
2026-04-28 23:13 24.46833 44.22858 24686 ft 434 kts 82°
2026-04-28 23:14 24.47375 44.26109 24330 ft 432 kts 82°
2026-04-28 23:14 24.47919 44.29319 23940 ft 417 kts 82°
2026-04-28 23:14 24.48441 44.32356 23628 ft 408 kts 82°
2026-04-28 23:14 24.48965 44.35417 23235 ft 408 kts 82°
2026-04-28 23:15 24.49490 44.38479 22861 ft 407 kts 82°
2026-04-28 23:15 24.50013 44.41527 22506 ft 406 kts 82°
2026-04-28 23:15 24.50535 44.44570 22151 ft 405 kts 82°
2026-04-28 23:15 24.51054 44.47601 21804 ft 403 kts 82°
2026-04-28 23:16 24.51571 44.50620 21474 ft 402 kts 82°
2026-04-28 23:16 24.52088 44.53631 21123 ft 401 kts 82°
2026-04-28 23:16 24.52607 44.56634 20775 ft 400 kts 82°
2026-04-28 23:16 24.53126 44.59636 20422 ft 399 kts 82°
2026-04-28 23:17 24.53641 44.62622 20063 ft 398 kts 82°
2026-04-28 23:17 24.54155 44.65604 19718 ft 397 kts 82°
2026-04-28 23:17 24.54667 44.68578 19366 ft 396 kts 82°
2026-04-28 23:17 24.55177 44.71547 19008 ft 396 kts 82°
2026-04-28 23:18 24.55686 44.74515 18646 ft 396 kts 82°
2026-04-28 23:18 24.56195 44.77489 18276 ft 395 kts 82°
2026-04-28 23:18 24.56702 44.80452 17860 ft 389 kts 82°
2026-04-28 23:18 24.57189 44.83285 17465 ft 368 kts 82°
2026-04-28 23:19 24.57659 44.86038 17136 ft 366 kts 82°
2026-04-28 23:19 24.58126 44.88784 16810 ft 365 kts 82°
2026-04-28 23:19 24.58591 44.91524 16468 ft 364 kts 82°
2026-04-28 23:19 24.59056 44.94257 16133 ft 364 kts 82°
2026-04-28 23:20 24.59518 44.96975 15949 ft 357 kts 82°
2026-04-28 23:20 24.59966 44.99618 15909 ft 348 kts 82°
2026-04-28 23:20 24.60406 45.02224 15868 ft 348 kts 82°
2026-04-28 23:20 24.60848 45.04861 15830 ft 353 kts 82°
2026-04-28 23:21 24.61289 45.07494 15799 ft 356 kts 82°
2026-04-28 23:21 24.61737 45.10159 15755 ft 354 kts 82°
2026-04-28 23:21 24.62184 45.12821 15715 ft 353 kts 82°
2026-04-28 23:21 24.62628 45.15470 15662 ft 352 kts 82°
2026-04-28 23:22 24.63071 45.18117 15638 ft 352 kts 82°
2026-04-28 23:22 24.63513 45.20757 15607 ft 351 kts 82°
2026-04-28 23:22 24.63953 45.23394 15563 ft 351 kts 82°
2026-04-28 23:22 24.64394 45.26034 15530 ft 350 kts 82°
2026-04-28 23:23 24.64833 45.28669 15492 ft 350 kts 82°
2026-04-28 23:23 24.65272 45.31302 15453 ft 350 kts 82°
2026-04-28 23:23 24.65710 45.33933 15410 ft 350 kts 82°
2026-04-28 23:23 24.66147 45.36564 15384 ft 350 kts 82°
2026-04-28 23:24 24.66583 45.39193 15343 ft 350 kts 82°
2026-04-28 23:24 24.67019 45.41823 15299 ft 350 kts 82°
2026-04-28 23:24 24.67455 45.44453 15273 ft 349 kts 82°
2026-04-28 23:24 24.67890 45.47083 15235 ft 350 kts 82°
2026-04-28 23:25 24.68318 45.49676 15203 ft 349 kts 82°
2026-04-28 23:25 24.68752 45.52305 15161 ft 349 kts 82°
2026-04-28 23:25 24.69185 45.54931 15127 ft 349 kts 82°
2026-04-28 23:25 24.69618 45.57555 15090 ft 349 kts 82°
2026-04-28 23:26 24.70049 45.60179 15042 ft 348 kts 82°
2026-04-28 23:26 24.70480 45.62796 15014 ft 348 kts 82°
2026-04-28 23:26 24.70909 45.65412 14977 ft 347 kts 82°
2026-04-28 23:26 24.71328 45.68026 14861 ft 348 kts 84°
2026-04-28 23:27 24.71538 45.70694 14391 ft 351 kts 90°
2026-04-28 23:27 24.71589 45.73375 13965 ft 351 kts 92°
2026-04-28 23:27 24.71620 45.76028 13489 ft 337 kts 92°
2026-04-28 23:27 24.71665 45.78547 13039 ft 327 kts 91°
2026-04-28 23:28 24.71723 45.81050 12607 ft 328 kts 91°
2026-04-28 23:28 24.71795 45.83558 12178 ft 328 kts 90°
2026-04-28 23:28 24.71873 45.86074 11738 ft 329 kts 90°
2026-04-28 23:28 24.71952 45.88588 11301 ft 329 kts 90°
2026-04-28 23:29 24.72032 45.91098 10966 ft 322 kts 90°
2026-04-28 23:29 24.72110 45.93494 10765 ft 311 kts 90°
2026-04-28 23:29 24.72183 45.95866 10572 ft 309 kts 90°
2026-04-28 23:29 24.72255 45.98222 10372 ft 308 kts 90°
2026-04-28 23:30 24.72327 46.00568 10187 ft 305 kts 90°
2026-04-28 23:30 24.72397 46.02841 9994 ft 298 kts 90°
2026-04-28 23:30 24.72467 46.05106 9813 ft 294 kts 90°
2026-04-28 23:30 24.72535 46.07351 9616 ft 293 kts 90°
2026-04-28 23:31 24.72602 46.09582 9433 ft 292 kts 90°
2026-04-28 23:31 24.72668 46.11808 9247 ft 290 kts 90°
2026-04-28 23:31 24.72735 46.14023 9076 ft 289 kts 90°
2026-04-28 23:31 24.72802 46.16214 8964 ft 285 kts 90°
2026-04-28 23:32 24.72868 46.18376 8874 ft 282 kts 90°
2026-04-28 23:32 24.72935 46.20547 8802 ft 286 kts 90°
2026-04-28 23:32 24.73001 46.22747 8727 ft 289 kts 90°
2026-04-28 23:32 24.73069 46.24951 8607 ft 288 kts 89°
2026-04-28 23:33 24.73267 46.27167 8293 ft 292 kts 84°
2026-04-28 23:33 24.73566 46.29352 8102 ft 285 kts 83°
2026-04-28 23:33 24.73874 46.31482 7946 ft 279 kts 83°
2026-04-28 23:33 24.74169 46.33579 7819 ft 277 kts 83°
2026-04-28 23:34 24.74455 46.35669 7691 ft 276 kts 83°
2026-04-28 23:34 24.74732 46.37734 7544 ft 276 kts 83°
2026-04-28 23:34 24.75008 46.39822 7419 ft 275 kts 83°
2026-04-28 23:34 24.75281 46.41907 7281 ft 275 kts 83°
2026-04-28 23:35 24.75552 46.43987 7153 ft 274 kts 83°
2026-04-28 23:35 24.75817 46.46033 7022 ft 267 kts 83°
2026-04-28 23:35 24.76075 46.48029 6875 ft 260 kts 83°
2026-04-28 23:35 24.76324 46.49973 6751 ft 253 kts 83°
2026-04-28 23:36 24.76566 46.51863 6619 ft 246 kts 83°
2026-04-28 23:36 24.76803 46.53704 6487 ft 240 kts 83°
2026-04-28 23:36 24.77032 46.55498 6359 ft 234 kts 83°
2026-04-28 23:36 24.77256 46.57262 6223 ft 232 kts 82°
2026-04-28 23:37 24.77479 46.59013 6108 ft 231 kts 82°
2026-04-28 23:37 24.77701 46.60758 5987 ft 230 kts 82°
2026-04-28 23:37 24.77921 46.62493 5865 ft 229 kts 82°
2026-04-28 23:37 24.78141 46.64225 5748 ft 226 kts 82°
2026-04-28 23:38 24.78355 46.65912 5600 ft 219 kts 82°
2026-04-28 23:38 24.78562 46.67542 5450 ft 212 kts 82°
2026-04-28 23:38 24.78762 46.69123 5303 ft 204 kts 81°
2026-04-28 23:38 24.78954 46.70643 5188 ft 198 kts 81°
2026-04-28 23:39 24.79139 46.72103 4990 ft 193 kts 81°
2026-04-28 23:39 24.79321 46.73549 4764 ft 189 kts 81°
2026-04-28 23:39 24.79525 46.74942 4577 ft 178 kts 71°
2026-04-28 23:39 24.80212 46.76022 4447 ft 172 kts 39°
2026-04-28 23:40 24.81247 46.76693 4452 ft 175 kts 32°
2026-04-28 23:40 24.82382 46.77210 4308 ft 182 kts
2026-04-28 23:40 24.83514 46.76752 4188 ft 173 kts 327°
2026-04-28 23:40 24.84463 46.75991 4030 ft 165 kts 331°
2026-04-28 23:41 24.85396 46.75315 3804 ft 155 kts 332°
2026-04-28 23:41 24.86223 46.74605 3568 ft 151 kts 324°
2026-04-28 23:41 24.87031 46.73868 3407 ft 147 kts 330°
2026-04-28 23:41 24.87879 46.73297 3250 ft 140 kts 338°
2026-04-28 23:42 24.88730 46.72777 3120 ft 140 kts 336°
2026-04-28 23:42 24.89575 46.72243 2975 ft 140 kts 335°
2026-04-28 23:42 24.90421 46.71714 2820 ft 141 kts 334°
2026-04-28 23:42 24.91275 46.71167 2626 ft 144 kts 331°
2026-04-28 23:43 24.92128 46.70628 2400 ft 138 kts 331°
2026-04-28 23:43 24.92964 46.70100 2220 ft 138 kts 331°
2026-04-28 23:43 24.93788 46.69578 2068 ft 136 kts 331°
2026-04-28 23:43 24.94540 46.69104 2042 ft 105 kts 330°
2026-04-28 23:44 24.95014 46.68804 2044 ft 52 kts 330°
2026-04-28 23:44 24.95291 46.68678 2040 ft 34 kts 358°
2026-04-28 23:44 24.95470 46.68720 2042 ft 21 kts 39°
2026-04-28 23:44 24.95586 46.68783 2043 ft 20 kts 341°
2026-04-28 23:45 24.95707 46.68712 2039 ft 20 kts 330°
2026-04-28 23:45 24.95826 46.68635 2042 ft 20 kts 330°
2026-04-28 23:45 24.95945 46.68560 2043 ft 20 kts 330°
2026-04-28 23:45 24.96051 46.68517 2037 ft 14 kts 16°
2026-04-28 23:46 24.96114 46.68603 2041 ft 16 kts 60°
2026-04-28 23:46 24.96183 46.68734 2041 ft 23 kts 60°
2026-04-28 23:46 24.96268 46.68898 2042 ft 25 kts 60°
2026-04-28 23:46 24.96355 46.69064 2041 ft 25 kts 60°
2026-04-28 23:47 24.96443 46.69230 2041 ft 25 kts 59°
2026-04-28 23:47 24.96531 46.69395 2040 ft 25 kts 59°
2026-04-28 23:47 24.96618 46.69561 2043 ft 25 kts 60°
2026-04-28 23:47 24.96704 46.69728 2041 ft 25 kts 59°
2026-04-28 23:48 24.96792 46.69893 2043 ft 25 kts 59°
2026-04-28 23:48 24.96855 46.70038 2039 ft 15 kts 96°
2026-04-28 23:48 24.96780 46.70114 2043 ft 15 kts 150°
2026-04-28 23:48 24.96688 46.70174 2042 ft 15 kts 149°
2026-04-28 23:49 24.96595 46.70232 2041 ft 15 kts 150°
2026-04-28 23:49 24.96525 46.70260 2042 ft 8 kts 194°
2026-04-28 23:49 24.96484 46.70216 2043 ft 8 kts 236°
2026-04-28 23:49 24.96468 46.70190 2039 ft 0 kts 236°
2026-04-28 23:50 24.96466 46.70186 2038 ft 2 kts 237°
2026-04-28 23:50 24.96466 46.70185 2038 ft 0 kts 237°